Tracking 20621 objects as of 31-Mar-2020
HD Live streaming from Space Station
objects crossing your sky now

SL-3 DEB

Track SL-3 DEB now!
10-day predictions


NORAD ID: 14928
Int'l Code: 1983-075F
Perigee: 512.7 km
Apogee: 556.6 km
Inclination: 97.9 °
Period: 95.2 minutes
Semi major axis: 6905 km
RCS: 0.0341 m2 (small)
Launch date: July 24, 1983
Source: Commonwealth of Independent States (former USSR) (CIS)
Launch site: TYURATAM MISSILE AND SPACE COMPLEX (TTMTR)

Note: This is SATELLITE DEBRIS
aabbcc
Your satellite tracking list
Your tracking list is empty




NASA's NSSDC Master Catalog

Two Line Element Set (TLE):
1 14928U 83075F   20090.82748418 +.00000189 +00000-0 +14818-4 0  9994
2 14928 097.9371 294.7784 0031760 348.8926 023.2518 15.12843632973915
Source of the keplerian elements: AFSPC